Weather History for KOWD - January, 2013

Change the Weather History Date:

Thursday, January 10, 2013

  Actual Average Record
Temperature  
Mean Temperature 40 °F -  
Max Temperature 48 °F 33 °F 55 °F (2000)
Min Temperature 32 °F 17 °F -2 °F (2004)
Degree Days  
Heating Degree Days 25    
Moisture  
Dew Point 21 °F    
Average Humidity 46    
Maximum Humidity 64    
Minimum Humidity 33    
Precipitation  
Precipitation 0.00 in - - ()
Sea Level Pressure  
Sea Level Pressure 30.32 in    
Wind  
Wind Speed 12 mph (WNW)    
Max Wind Speed 23 mph    
Max Gust Speed 36 mph    
Visibility 10 miles    
Events      
Averages and records for this station are not official NWS values.
T = Trace of Precipitation, MM = Missing Value Source: NWS Daily Summary

Daily Weather History Graph

Daily Weather History Graph

Search for Another Location

Airport or City:

Trip Planner

Search our weather history database for the weather conditions in past years. The results will help you decide how hot, cold, wet, or windy it might be!

Date:

Astronomy

Jan. 10, 2013 Rise Set
Actual Time 7:12 AM EST 4:32 PM EST
Civil Twilight 6:41 AM EST 5:03 PM EST
Nautical Twilight 6:06 AM EST 5:38 PM EST
Astronomical Twilight 5:32 AM EST 6:12 PM EST
Moon 5:49 AM EST (1/10) 3:36 PM EST (1/10)
Length of Visible Light 10h 22m
Length of Day
9h 19m
Waning Crescent, 2% of the Moon is Illuminated
Jan 10
Waning Crescent
Jan 11
New
Jan 18
First Quarter
Jan 26
Full
Feb 3
Last Quarter

Hourly Weather History & Observations

Time (EST) Temp. Windchill Dew Point Humidity Pressure Visibility Wind Dir Wind Speed Gust Speed Precip Events Conditions
12:53 AM 44.1 °F 39.0 °F 24.1 °F 45% 30.05 in 10.0 mi West 9.2 mph - N/A   Partly Cloudy
1:53 AM 43.0 °F 37.2 °F 23.0 °F 45% 30.06 in 10.0 mi West 10.4 mph - N/A   Partly Cloudy
2:28 AM 44.6 °F 36.1 °F 24.8 °F 46% 30.09 in 10.0 mi WNW 21.9 mph 35.7 mph N/A   Scattered Clouds
2:53 AM 43.0 °F 33.8 °F 25.0 °F 49% 30.10 in 10.0 mi WNW 23.0 mph 34.5 mph N/A   Clear
3:53 AM 42.1 °F 33.6 °F 24.1 °F 49% 30.14 in 10.0 mi WNW 18.4 mph 28.8 mph N/A   Clear
4:53 AM 41.0 °F 35.2 °F 23.0 °F 49% 30.18 in 10.0 mi NW 9.2 mph - N/A   Clear
5:53 AM 41.0 °F 35.8 °F 21.0 °F 45% 30.23 in 10.0 mi NW 8.1 mph 20.7 mph N/A   Clear
6:53 AM 41.0 °F 33.9 °F 19.9 °F 43% 30.26 in 10.0 mi NW 12.7 mph 21.9 mph N/A   Clear
7:53 AM 39.9 °F 33.4 °F 21.0 °F 47% 30.29 in 10.0 mi WNW 10.4 mph - N/A   Clear
8:53 AM 42.1 °F 34.9 °F 21.0 °F 43% 30.33 in 10.0 mi WNW 13.8 mph 23.0 mph N/A   Clear
9:53 AM 43.0 °F 35.7 °F 21.0 °F 42% 30.34 in 10.0 mi NW 15.0 mph 26.5 mph N/A   Clear
10:53 AM 45.0 °F 37.6 °F 19.9 °F 37% 30.34 in 10.0 mi NW 17.3 mph 24.2 mph N/A   Clear
11:53 AM 46.0 °F 39.3 °F 21.0 °F 37% 30.32 in 10.0 mi NW 16.1 mph 27.6 mph N/A   Clear
12:53 PM 46.9 °F - 21.0 °F 36% 30.33 in 10.0 mi NW 10.4 mph 19.6 mph N/A   Clear
1:53 PM 48.0 °F - 19.9 °F 33% 30.35 in 10.0 mi NW 15.0 mph 24.2 mph N/A   Clear
2:53 PM 46.9 °F - 19.9 °F 34% 30.38 in 10.0 mi NW 13.8 mph 20.7 mph N/A   Clear
3:53 PM 45.0 °F 40.6 °F 19.9 °F 37% 30.40 in 10.0 mi NW 8.1 mph - N/A   Clear
4:53 PM 41.0 °F 36.4 °F 19.9 °F 43% 30.44 in 10.0 mi NW 6.9 mph - N/A   Clear
5:53 PM 37.0 °F 31.6 °F 21.0 °F 52% 30.45 in 10.0 mi WNW 6.9 mph - N/A   Clear
6:53 PM 37.9 °F 35.5 °F 19.9 °F 48% 30.46 in 10.0 mi NW 3.5 mph - N/A   Clear
7:53 PM 36.0 °F 29.0 °F 21.0 °F 55% 30.48 in 10.0 mi WNW 9.2 mph - N/A   Clear
8:53 PM 32.0 °F - 19.9 °F 61% 30.51 in 10.0 mi Calm Calm - N/A   Clear
9:53 PM 35.1 °F 31.0 °F 21.0 °F 57% 30.54 in 10.0 mi NNW 4.6 mph - N/A   Clear
10:53 PM 33.1 °F - 21.0 °F 61% 30.53 in 10.0 mi Calm Calm - N/A   Clear
11:53 PM 32.0 °F - 21.0 °F 64% 30.52 in 10.0 mi Calm Calm - N/A   Clear